Regional Weather Roundup
Issued by NWS

Home | Current Version | Previous Version | Text Only | Print | Product List | Glossary Off
Versions: 1 2 3 4 5 6 7 8 9 10 11 12 13 14 15 16 17 18 19 20 21 22 23 24 25 26 27 28 29 30 31 32 33 34 35 36 37 38 39 40 41 42 43 44 45 46 47 48 49 50

000
ASUS43 KIND 231509
RWRIN

WEATHER ROUNDUP FOR INDIANA
NATIONAL WEATHER SERVICE INDIANAPOLIS IN
1100 AM EDT WED APR 23 2014

NOTE: "FAIR" INDICATES FEW OR NO CLOUDS BELOW 12,000 FEET WITH NO
SIGNIFICANT WEATHER AND/OR OBSTRUCTIONS TO VISIBILITY.

* - STATION DOES NOT REPORT WEATHER SUCH AS PRECIPITATION OR FOG.

+ - STATION NOT QUALITY CONTROLLED BY THE NATIONAL WEATHER SERVICE.
    USE DATA WITH CAUTION...ESPECIALLY DEWPOINT AND RELATIVE
    HUMIDITY OBSERVATIONS.

INZ001>003-010>013-019-020-231600-
NORTHWEST INDIANA

CITY           SKY/WX    TMP DP  RH WIND       PRES   REMARKS
GARY /AIRPORT/ MOSUNNY   43  30  61 N9G21     30.20R
LA PORTE +     SUNNY     42  30  62 N7        30.16R
MICHIGAN CITY+ SUNNY     41  30  65 N9G16     30.17S
MONTICELLO +   SUNNY     43  29  57 NE7       30.15R
RENSSELAER +   SUNNY     43  32  65 N9        30.16S
VALPARAISO     LGT RAIN  42  29  59 N9        30.17R

$$

LMZ046-743>745-231600-
SOUTHERN LAKE MICHIGAN

STATION/POSITION TIME  TEMP WIND        PRES
                       AIR  DIR/SP/G
                 (UTC) (F)  (DEG/KT/KT) (MB)
MICHIGAN CITY    1500   37  360/ 14/ 16   N/A

$$

INZ004-005-014>016-021>024-231600-
NORTH CENTRAL INDIANA

CITY           SKY/WX    TMP DP  RH WIND       PRES   REMARKS
ELKHART        SUNNY     41  27  56 NE7       30.15R
GOSHEN         SUNNY     43  30  60 N9        30.14R
LOGANSPORT +   SUNNY     43  28  56 N6        30.15R
PERU/GRISSOM   SUNNY     44  34  66 VRB6      30.13S
ROCHESTER +    SUNNY     46  32  57 N9        30.14S
SOUTH BEND     SUNNY     45  28  51 N8        30.15S
WARSAW +       SUNNY     43  30  61 N7        30.13S

$$

INZ006>009-017-018-025>027-231600-
NORTHEAST INDIANA

CITY           SKY/WX    TMP DP  RH WIND       PRES   REMARKS
ANGOLA *+      SUNNY     41  30  65 N9        30.11S
AUBURN +       SUNNY     43  30  61 N8        30.13R
FORT WAYNE     MOSUNNY   45  30  55 N6        30.12R

$$

INZ028-029-035-036-043>045-051>053-231600-
WEST CENTRAL INDIANA

CITY           SKY/WX    TMP DP  RH WIND       PRES   REMARKS
GREENCASTLE +  SUNNY     45  32  61 N6        30.14S
LAFAYETTE      SUNNY     44  29  55 N9        30.15S
TERRE HAUTE    SUNNY     49  30  48 N9        30.15R

$$

INZ030>032-037>040-046>048-054>057-064-065-231600-
CENTRAL INDIANA

CITY           SKY/WX    TMP DP  RH WIND       PRES   REMARKS
CP ATTERBURY + SUNNY     46  32  57 NE7       30.13S
COLUMBUS       SUNNY     46  30  53 N7        30.14R
INDIANAPOLIS   SUNNY     44  30  57 N6        30.13R
-EAGLE CREEK   SUNNY     45  31  58 VRB5      30.13R
KOKOMO *+        N/A    N/A N/A N/A MISG        N/A
MARION +       SUNNY     42  28  56 N7        30.13S
MT COMFORT *+  SUNNY     46  32  57 N6        30.13R
SHELBYVILLE    SUNNY     47  30  51 N5        30.13R
ZIONSVILLE +   SUNNY     44  29  56 N6        30.14R

$$

INZ033-034-041-042-049-050-058-059-231600-
EAST CENTRAL INDIANA

CITY           SKY/WX    TMP DP  RH WIND       PRES   REMARKS
MUNCIE         SUNNY     42  31  64 CALM      30.12S

$$

INZ060-061-067>069-081>083-085>088-231600-
SOUTHWEST INDIANA

CITY           SKY/WX    TMP DP  RH WIND       PRES   REMARKS
EVANSVILLE     SUNNY     53  30  41 NE8       30.15R
HUNTINGBURG *+ SUNNY     52  32  46 NE8       30.15R
WASHINGTON +   SUNNY     49  30  49 N6        30.15R

$$

INZ062-063-066-070>080-084-089>092-231600-
SOUTH CENTRAL AND SOUTHEAST INDIANA

CITY           SKY/WX    TMP DP  RH WIND       PRES   REMARKS
BLOOMINGTON    SUNNY     50  27  40 NE13      30.12S

$$




USA.gov is the U.S. government's official web portal to all federal, state and local government web resources and services.